|
NORAD ID: 28326 Int'l Code: 1991-082AP
Perigee: 811.4 km
Apogee: 915.6 km
Inclination: 98.9 °
Period: 102.1 minutes
Semi major axis: 7234 km
Launch date: November 28, 1991
Source: United States (US)
Note: This is SATELLITE DEBRIS
Two Line Element Set (TLE):
1 28326U 91082AP 13164.92508627 .00001224 00000-0 69084-3 0 883
2 28326 098.9323 151.4320 0072028 343.7288 016.1571 14.10874566467849
Source:
NASA's NSSDC Master Catalog entry for DMSP 5D-2 F11 DEB
|